This is the latest recevied weather packets stored in our database for station/object WX0ABE-13. If no packets are shown the sender has not sent any weather packets the latest 10 day(s).
| Time | Temp. | Humidity | Pressure | Rain* | Wind** | Luminosity | Snow |
|---|---|---|---|---|---|---|---|
| 1787931500 | 23.89° C | 59% | 1019.3 hPa | 0 mm | - | 388 W/m² | - |
| 1787931186 | 24.44° C | 60% | 1019.4 hPa | 0 mm | - | 379 W/m² | - |
| 1787930584 | 23.33° C | 62% | 1019.5 hPa | 0 mm | - | 351 W/m² | - |
| 1787930280 | 23.33° C | 63% | 1019.5 hPa | 0 mm | - | 328 W/m² | - |
| 1787929980 | 22.78° C | 64% | 1019.8 hPa | 0 mm | - | 320 W/m² | - |
| 1787929678 | 22.78° C | 65% | 1019.3 hPa | 0 mm | - | 266 W/m² | - |
| 1787929374 | 22.22° C | 66% | 1019.4 hPa | 0 mm | - | 191 W/m² | - |
| 1787929071 | 21.67° C | 67% | 1019.3 hPa | 0 mm | - | 85 W/m² | - |
| 1787928767 | 21.67° C | 69% | 1019.6 hPa | 0 mm | - | 59 W/m² | - |
| 1787928465 | 21.67° C | 69% | 1019.5 hPa | 0 mm | - | 65 W/m² | - |
| 1787928165 | 21.11° C | 71% | 1019.8 hPa | 0 mm | - | 47 W/m² | - |
| 1787927864 | 20.56° C | 72% | 1019.6 hPa | 0 mm | - | 45 W/m² | - |
| 1787927559 | 20.56° C | 73% | 1019.6 hPa | 0 mm | - | 48 W/m² | - |
| 1787927254 | 20.56° C | 72% | 1019.5 hPa | 0 mm | - | 111 W/m² | - |
| 1787926950 | 20° C | 74% | 1019.9 hPa | 0 mm | - | 48 W/m² | - |
| 1787926644 | 20° C | 74% | 1019.9 hPa | 0 mm | - | 43 W/m² | - |
| 1787926342 | 20° C | 75% | 1019.9 hPa | 0 mm | - | 46 W/m² | - |
| 1787926038 | 20° C | 75% | 1019.6 hPa | 0 mm | - | 51 W/m² | - |
| 1787925732 | 19.44° C | 75% | 1019.9 hPa | 0 mm | - | 37 W/m² | - |
| 1787925431 | 19.44° C | 76% | 1019.8 hPa | 0 mm | - | 38 W/m² | - |
| 1787925131 | 19.44° C | 77% | 1019.9 hPa | 0 mm | - | 36 W/m² | - |
| 1787924830 | 18.89° C | 77% | 1019.8 hPa | 0 mm | - | 35 W/m² | - |
| 1787924525 | 18.89° C | 77% | 1019.9 hPa | 0 mm | - | 33 W/m² | - |
| 1787924221 | 18.89° C | 78% | 1019.8 hPa | 0 mm | - | 32 W/m² | - |
| 1787923921 | 18.33° C | 78% | 1019.9 hPa | 0 mm | - | 31 W/m² | - |
* Rain latest hour (hover to see other rain measurements)
** Current wind speed in m/s (hover to see current wind gust speed)